Location: LDNL
(36.4545°S, 141.6685°E)
Time: 11:39:50
(UTC+10:00)

Tiros 1 despin weight - Pass Details

Date: 12 August 2022
Orbit: 590 x 639 km, 48.2° (Epoch: 23 September)

Event Time Altitude Azimuth Distance (km) Brightness Sun altitude
Rises 06:15:05 0° 233° (SW) 2,964 - -13.5°
Reaches altitude 10° 06:17:28 10° 229° (SW) 2,052 - -13.1°
Exits shadow 06:18:08 14° 227° (SW) 1,800 ? -12.9°
Maximum altitude 06:22:09 59° 149° (SSE) 747 ? -12.1°
Drops below altitude 10° 06:26:47 10° 69° (ENE) 2,031 ? -11.2°
Sets 06:29:08 0° 65° (ENE) 2,930 ? -10.7°
